Theta_e
307 311 316 318 320 322 321 321 321 322 321 318 317 315 315 319 320 321 320 322 324 327 328 328 328 336 346 350 350 351 350 352 353 357 355 351 350 351 351 348 345 343 340 338 334 332 331 330 328 329 329 332 335 337 338 340 342 341 337 335 336 334 333 337 338 338 338 337 336 335 334 333 333 332 331 331 331 331 331 336 339 340 340 341 341 341 340 340 340 340 340 339 338 338 337 333 332
310 317 320 321 321 320 321 321 320 320 317 316 318 317 318 320 320 318 321 324 330 331 330 331 332 338 345 346 347 352 353 352 350 353 351 348 350 351 350 347 344 343 340 337 334 331 330 329 328 328 329 332 334 336 338 340 342 342 339 336 336 334 333 336 337 338 337 337 337 336 335 335 334 333 332 331 331 332 332 335 336 338 340 340 339 340 340 340 339 340 340 340 338 339 337 333 331
309 316 319 321 321 318 319 320 321 318 314 315 316 319 320 321 320 321 325 328 331 331 330 332 339 342 343 347 346 351 354 351 349 350 348 348 350 351 350 346 343 341 339 335 333 331 329 328 328 327 328 331 333 334 336 340 342 342 340 337 336 334 333 335 336 337 337 337 337 337 337 335 332 330 328 327 326 326 327 331 336 338 340 339 338 338 339 339 338 339 340 340 339 337 336 334 331
308 315 318 318 318 316 318 320 323 318 314 313 312 317 320 322 325 326 327 329 328 329 330 335 344 344 345 348 345 348 351 349 349 350 350 349 349 350 349 346 343 340 337 335 332 330 328 327 327 327 328 329 331 333 336 339 341 342 341 338 337 334 333 335 335 335 336 337 337 337 336 332 328 327 326 325 324 324 325 330 336 339 339 338 338 337 338 338 338 339 340 339 338 337 334 334 333
309 316 316 315 317 318 319 320 321 316 315 314 312 315 320 325 328 329 330 330 327 329 328 337 347 344 346 348 346 349 350 349 350 350 350 349 349 349 348 345 342 340 337 333 331 329 327 326 327 326 327 328 329 332 335 339 341 342 341 339 337 334 333 335 335 335 335 336 337 336 334 329 327 326 325 325 325 326 327 329 334 338 338 338 337 337 337 337 338 339 339 338 338 336 332 330 333
310 313 314 314 317 318 319 321 319 316 316 317 313 315 321 327 329 328 330 330 328 330 326 337 346 346 349 348 346 347 347 349 351 351 350 348 349 348 346 345 342 340 337 332 331 329 326 327 326 326 326 328 329 331 336 338 340 341 340 339 338 335 335 336 336 335 336 336 336 335 332 328 325 323 324 326 328 328 327 327 332 336 338 337 337 337 337 337 337 338 338 338 336 335 331 329 331
313 313 315 316 316 316 318 318 317 316 317 318 315 316 323 329 329 326 326 327 327 328 325 339 344 346 350 347 348 348 345 348 351 351 350 348 349 347 347 346 344 342 337 332 330 328 326 326 326 326 326 328 331 334 336 337 339 340 339 339 339 338 337 337 336 335 335 336 335 334 330 326 324 325 327 329 330 330 327 326 329 334 336 337 337 337 337 336 337 337 337 336 334 332 331 330 328
314 314 316 317 318 316 317 316 314 316 315 317 317 316 325 326 326 325 325 322 325 328 324 336 344 350 350 348 351 349 346 349 350 351 350 349 348 347 347 347 345 343 339 332 330 328 326 326 326 325 326 327 332 335 336 336 337 338 339 339 339 339 338 338 336 335 336 335 335 331 326 324 326 329 330 330 330 329 328 326 327 329 331 334 336 337 336 336 336 335 335 333 332 330 330 330 328
313 314 315 317 320 318 316 315 314 315 315 316 317 318 325 323 323 322 323 320 322 325 324 335 344 351 351 350 351 348 348 349 350 350 349 348 346 345 346 347 346 345 340 332 329 328 326 326 325 325 326 326 330 333 335 336 336 338 339 340 340 339 338 337 336 336 336 335 333 328 325 327 329 330 330 330 329 329 328 327 326 327 328 331 333 335 334 334 333 332 332 331 330 329 330 329 328
313 314 316 318 320 318 316 315 314 315 316 318 316 317 322 321 322 320 322 321 320 321 329 340 345 350 351 351 351 348 348 349 349 349 349 348 348 346 346 346 345 345 340 332 329 328 327 326 325 326 326 326 327 329 333 335 335 336 338 340 340 339 338 337 336 335 335 334 330 326 327 328 330 331 331 329 329 329 328 328 328 328 328 328 329 330 329 330 330 329 329 328 328 328 329 328 328
314 314 315 315 315 314 314 314 314 316 317 317 318 318 319 320 321 319 319 319 318 320 329 343 349 351 351 351 351 348 346 347 347 348 348 348 348 348 347 347 346 344 339 332 330 329 328 326 326 326 326 327 327 327 331 334 335 336 338 339 339 338 337 336 336 336 335 332 328 327 328 329 330 331 331 330 329 329 328 328 328 329 329 328 327 327 326 327 328 327 325 326 329 329 328 328 328
315 316 315 314 314 314 314 313 313 317 317 317 318 317 318 319 319 317 317 317 318 318 322 340 347 349 351 351 351 348 346 346 347 347 347 347 348 349 348 348 347 342 337 334 333 331 329 326 326 326 327 327 327 327 329 332 334 336 337 338 338 337 336 336 336 335 333 331 328 328 329 329 331 331 332 331 330 329 328 327 327 328 329 328 329 328 328 327 328 326 323 324 328 329 329 328 328
314 317 315 315 317 315 314 313 314 318 318 317 317 317 318 318 319 317 317 317 317 317 324 339 342 346 350 350 349 347 347 346 346 347 346 347 347 349 348 348 344 339 337 336 335 332 330 328 327 326 326 327 327 328 327 329 331 334 336 337 337 336 336 336 334 333 332 330 329 330 331 332 333 333 333 332 332 330 329 327 327 328 328 328 329 329 329 329 329 327 324 324 328 329 329 328 327
315 316 315 317 319 316 315 314 315 316 315 319 318 319 319 317 318 318 318 318 317 321 333 341 341 347 351 350 349 348 348 345 345 346 345 346 346 348 348 347 344 341 338 338 337 334 332 329 328 327 326 327 327 328 328 328 329 331 334 335 335 334 335 334 333 332 332 331 332 334 335 336 336 335 334 333 333 332 330 328 327 327 328 328 328 328 329 329 330 329 326 326 328 328 329 327 327
315 315 315 316 316 314 314 314 315 313 314 319 318 319 319 318 318 318 318 318 317 323 335 341 341 349 350 351 351 347 346 344 344 345 344 345 345 347 347 347 346 344 341 338 337 336 333 332 329 328 327 328 328 330 330 330 329 329 330 332 332 332 333 333 333 333 333 334 335 336 336 337 336 336 336 335 334 333 330 329 327 326 327 327 328 328 328 329 330 329 327 327 327 327 327 326 327
315 315 316 316 315 314 314 315 314 312 315 317 317 319 318 318 319 318 319 319 318 322 334 338 337 345 346 348 349 345 344 344 344 345 344 344 344 346 347 347 346 346 344 341 339 337 336 335 333 329 328 329 329 331 332 333 333 331 329 329 330 330 332 333 333 334 335 336 336 337 337 337 337 337 337 336 335 335 331 329 328 326 327 327 327 328 328 328 330 329 327 327 326 327 327 326 326
315 316 316 316 316 313 315 317 314 314 315 317 319 318 318 318 319 318 320 320 319 328 337 336 335 341 343 345 345 344 344 344 345 346 345 343 343 345 345 346 346 346 345 344 342 340 338 337 335 331 330 332 332 331 332 335 334 332 331 330 330 331 332 334 334 335 335 337 336 337 337 336 337 336 337 336 334 336 334 329 328 326 326 327 327 328 328 329 329 330 327 327 328 328 328 326 327
314 317 317 314 315 314 315 317 315 316 316 318 319 319 319 318 319 318 322 320 320 335 340 338 341 341 343 344 343 344 344 344 345 345 344 344 342 343 342 343 344 345 345 346 345 343 341 339 336 333 332 334 335 333 333 336 335 334 332 331 331 332 334 335 335 335 336 336 334 335 335 333 336 335 335 336 333 336 335 330 328 326 325 325 325 327 328 329 329 330 328 328 329 329 329 327 326
313 317 317 314 315 315 314 316 316 317 316 318 318 318 319 317 318 318 322 321 325 344 347 344 347 346 344 345 342 344 344 344 345 345 344 343 342 342 341 341 342 343 344 346 346 345 344 340 337 335 334 335 336 334 334 335 336 336 334 332 332 333 334 335 334 335 336 336 334 335 334 332 335 336 336 337 335 337 337 332 328 325 325 323 323 326 327 328 329 329 329 328 328 329 327 325 325
314 315 317 315 315 315 315 315 315 317 316 318 317 316 318 317 318 319 322 321 324 342 350 348 349 348 346 345 344 344 344 343 344 344 344 343 342 343 342 342 342 343 344 346 346 347 346 342 339 338 337 338 337 336 335 335 335 334 334 334 333 334 335 334 333 334 335 335 334 334 335 333 333 335 337 336 334 335 335 333 331 328 324 323 324 325 325 327 329 329 330 328 328 327 326 326 327
314 314 315 315 315 315 315 315 316 317 316 317 317 316 317 316 319 320 321 321 321 335 347 349 349 348 346 346 345 344 344 344 344 344 343 343 343 343 343 343 342 342 343 344 345 346 346 343 341 340 340 341 341 341 340 338 336 334 336 336 335 337 337 336 337 336 337 337 336 336 336 335 333 334 334 334 334 332 332 333 334 331 324 324 326 325 325 327 328 330 330 328 327 326 325 328 329
314 315 314 314 314 314 314 315 316 317 317 316 316 315 317 316 318 319 318 322 326 335 345 347 347 347 346 345 345 345 346 346 344 343 344 344 343 344 344 343 342 342 342 342 342 343 344 342 342 342 343 343 343 343 343 341 339 338 340 339 339 340 338 339 341 337 337 338 336 336 337 336 335 334 334 335 336 333 331 332 335 334 327 327 329 327 328 329 329 330 329 327 327 326 326 328 328
314 314 314 315 314 314 315 315 317 317 316 316 316 316 316 318 318 317 320 328 334 339 343 344 345 345 345 344 345 346 347 347 346 343 343 344 343 344 345 344 344 342 342 341 340 340 340 342 342 341 341 341 342 343 343 342 341 342 343 342 342 341 338 340 340 336 335 336 336 337 337 338 336 336 336 336 335 334 333 331 334 335 332 332 331 331 331 330 330 332 330 328 329 328 328 329 328
314 314 314 315 315 314 315 315 316 317 316 316 316 317 317 317 317 318 325 334 339 340 341 342 342 343 343 344 345 347 347 347 345 343 344 344 343 344 345 345 343 342 342 340 339 338 338 340 340 339 338 338 340 340 340 341 341 343 343 343 342 340 339 338 337 336 335 335 337 337 337 338 338 336 337 336 334 335 335 334 335 336 335 334 332 332 333 332 331 333 332 331 331 331 330 330 329
313 314 313 314 314 314 315 315 315 316 316 316 316 317 317 317 318 320 329 335 336 337 339 341 342 342 342 344 346 347 347 347 344 342 342 342 342 343 344 345 343 343 343 340 339 338 338 339 339 339 339 339 340 340 340 341 341 342 342 341 340 339 338 337 336 337 336 335 336 336 336 337 336 336 337 336 335 335 335 336 336 336 335 333 332 332 332 331 331 332 333 333 332 331 331 330 329
314 314 314 314 314 314 315 315 316 316 316 316 316 317 316 317 317 320 329 334 334 334 337 339 341 341 342 345 347 347 347 348 345 340 339 339 341 341 342 344 343 343 343 341 338 337 338 338 338 340 340 338 339 340 339 339 339 339 338 337 337 337 336 335 335 334 335 335 336 336 335 335 335 335 336 335 335 335 335 335 334 334 333 331 331 331 331 331 331 332 333 333 332 332 331 330 329
314 314 315 314 314 315 315 315 316 315 315 316 316 316 316 317 317 320 328 333 333 334 336 337 339 341 341 343 346 347 347 346 341 338 337 337 339 339 340 342 343 343 342 340 339 337 337 338 338 339 340 339 337 337 336 336 336 335 335 335 335 335 335 335 334 333 334 335 335 336 334 334 336 335 334 334 333 334 333 334 334 334 333 332 331 331 330 330 331 332 333 332 331 331 331 330 330
314 314 315 314 315 314 314 315 315 315 315 315 315 316 316 317 319 322 326 328 330 334 336 338 339 340 341 343 345 348 348 341 335 336 337 336 336 337 337 339 342 342 340 339 338 336 335 336 336 336 337 336 335 337 336 335 334 334 335 335 335 335 334 333 333 332 333 333 334 336 333 333 335 334 333 332 331 331 329 331 334 332 332 332 331 329 330 331 331 332 332 331 330 331 332 331 331
313 314 313 314 315 315 315 315 315 315 315 316 316 314 316 317 319 322 325 324 325 330 335 337 339 340 342 344 344 347 343 333 329 333 336 335 335 335 336 337 340 340 338 336 334 333 333 334 334 334 334 333 333 334 333 331 330 332 334 335 335 334 333 332 333 334 334 332 332 334 333 332 332 332 333 332 330 328 325 327 332 332 331 331 330 330 331 331 331 330 330 330 329 330 331 330 330
313 314 314 314 314 313 315 314 314 314 314 317 316 313 316 318 318 322 324 325 323 326 330 332 337 339 341 343 343 343 339 333 332 334 336 336 334 334 334 335 337 337 335 333 332 333 332 332 332 332 331 331 331 330 329 328 328 329 332 332 332 333 333 333 334 336 336 334 334 333 333 333 333 334 333 332 331 329 327 328 329 331 332 330 330 331 331 332 331 330 329 329 328 329 330 330 330
314 313 313 313 312 311 313 315 315 313 315 318 315 313 316 317 319 322 324 324 323 323 327 330 333 338 340 341 341 340 338 335 334 334 336 335 334 333 332 333 334 333 333 332 331 332 331 332 332 329 329 331 330 328 328 328 327 329 330 329 329 331 333 333 333 335 336 335 334 334 334 336 336 335 334 332 332 331 331 332 331 333 333 331 331 330 330 332 331 329 329 328 326 327 329 329 329
314 313 313 313 311 311 313 315 315 313 315 317 315 314 317 317 319 324 323 323 323 322 325 329 332 337 339 338 340 340 337 334 333 334 335 335 334 333 332 333 333 332 331 330 331 332 332 332 331 328 329 330 328 327 327 326 327 327 327 326 327 329 330 330 331 332 333 334 333 333 334 335 335 335 333 333 333 332 332 334 334 335 333 332 331 330 331 332 330 329 328 327 325 324 326 326 327
314 314 314 314 312 310 311 314 315 314 315 316 315 316 318 318 319 322 321 321 321 321 325 328 333 337 338 337 338 338 334 334 333 333 334 334 333 332 333 333 332 331 330 330 332 332 332 331 330 328 329 329 327 326 326 324 324 324 325 325 326 328 329 329 330 330 331 333 334 333 332 333 334 334 333 333 332 331 332 335 336 334 332 331 331 330 332 332 330 329 327 327 325 324 324 323 323
318 315 313 314 312 311 311 313 314 314 315 316 316 317 317 317 319 321 320 320 321 322 326 330 334 337 336 335 335 335 335 335 333 331 332 334 332 331 332 331 331 332 328 328 332 332 332 332 331 330 330 329 324 324 326 325 323 324 325 325 325 328 330 330 330 329 330 331 332 332 332 332 334 333 333 333 332 330 331 333 335 334 332 332 332 331 333 332 330 330 327 326 326 326 326 325 325
319 317 315 315 314 313 311 312 314 315 316 317 317 316 316 318 319 319 318 319 320 323 327 329 333 334 333 332 333 334 335 335 333 330 331 334 331 331 332 330 329 330 327 328 332 332 333 333 332 332 329 325 322 323 326 325 323 322 322 321 322 326 330 330 329 329 330 330 330 330 331 332 332 332 331 331 330 329 330 331 333 334 333 332 332 333 333 332 331 330 328 327 327 327 327 328 329
319 318 317 315 314 313 313 314 315 315 315 316 317 316 317 319 320 319 320 321 321 323 326 327 331 333 331 331 331 331 332 333 332 329 331 333 332 331 332 330 329 327 325 328 333 333 334 334 333 333 329 324 323 325 326 323 321 320 320 321 322 325 328 328 327 329 328 329 330 329 329 329 329 329 328 328 327 328 330 331 332 333 333 332 332 332 331 331 331 330 329 327 326 327 329 330 330
322 319 317 316 313 313 315 315 315 320 318 315 319 320 319 320 321 321 321 322 322 322 327 328 332 333 330 330 331 330 331 331 330 330 330 331 332 331 331 330 329 327 326 328 333 334 335 335 333 332 328 322 322 325 323 322 321 321 321 321 323 324 325 326 326 327 327 326 326 326 326 325 326 327 327 326 326 326 328 330 332 333 333 332 332 332 330 329 329 329 328 327 326 328 331 331 330
325 321 317 315 314 313 317 317 315 324 325 319 320 321 321 322 323 322 321 322 322 323 326 328 332 334 332 331 331 331 331 329 329 330 330 330 331 330 329 329 330 330 328 329 333 334 334 334 333 332 326 320 320 323 322 323 322 322 322 320 321 323 324 324 323 322 323 323 322 322 322 321 322 323 324 325 325 326 326 327 330 332 332 332 332 331 330 329 328 328 328 328 328 329 330 330 330
324 321 318 316 315 313 320 324 317 319 324 321 321 321 323 326 324 322 322 323 324 326 328 328 331 334 333 333 332 331 330 329 330 331 329 328 329 328 327 327 330 331 329 329 333 333 334 333 332 330 324 319 322 324 323 323 322 322 322 320 320 322 322 321 321 320 321 321 321 321 321 320 319 319 320 323 323 325 325 326 327 328 329 331 332 331 330 329 329 327 327 327 327 327 328 330 330
323 320 316 315 315 311 317 325 321 321 325 321 321 321 324 329 325 322 325 325 324 327 329 328 329 332 333 333 332 331 330 330 331 331 329 328 327 327 325 324 330 332 330 331 333 333 333 332 332 329 322 320 323 324 324 323 321 321 322 321 320 320 319 320 321 321 321 321 321 320 320 320 320 319 320 322 321 321 322 325 326 326 327 329 330 330 330 329 329 328 327 326 326 326 328 330 331
325 323 317 315 315 312 315 325 330 332 331 326 323 322 326 330 324 322 327 328 325 324 324 324 324 328 331 333 332 331 331 329 329 330 329 327 325 327 325 323 329 333 331 332 332 333 333 332 332 328 321 323 325 323 322 321 321 321 320 319 318 319 319 319 320 320 320 320 320 320 320 320 320 320 320 320 321 319 319 322 325 325 326 327 327 328 330 329 329 328 326 327 327 328 329 330 332
323 327 324 318 317 317 318 325 334 331 327 330 325 320 329 332 321 321 326 325 322 322 322 322 322 325 329 334 334 331 331 328 328 328 328 327 325 326 325 323 329 332 331 331 332 333 333 333 332 326 322 323 324 322 321 320 321 320 318 316 317 319 319 319 320 321 321 321 320 319 319 319 319 319 319 319 320 320 319 319 321 323 323 325 325 326 327 328 328 328 327 328 328 329 329 330 330
318 325 326 321 318 319 321 324 329 324 320 330 326 319 330 332 321 321 323 320 320 320 322 322 322 323 327 332 333 331 331 329 327 327 327 326 324 325 326 323 328 332 331 331 331 332 333 334 331 324 321 323 323 321 321 321 321 321 318 315 316 319 319 318 320 321 320 320 320 319 318 319 319 319 319 319 319 318 317 317 317 318 318 320 322 323 325 326 326 327 328 327 326 328 329 328 328
319 325 321 319 318 319 324 322 323 323 320 326 325 318 322 323 322 323 321 319 321 321 322 323 323 321 324 330 333 331 330 329 328 327 327 327 324 324 326 325 327 332 331 330 331 332 332 332 329 323 322 322 322 322 321 321 321 318 316 315 316 320 319 318 320 320 319 319 319 318 319 320 320 319 319 319 319 316 315 316 316 317 319 319 320 321 322 323 323 323 324 324 324 326 327 326 326
320 324 319 319 316 318 323 319 319 322 318 318 321 318 316 319 324 324 319 319 319 320 324 322 323 322 320 325 330 332 330 329 328 328 329 328 325 324 325 326 326 330 332 330 330 331 331 330 328 326 323 321 321 322 321 321 319 316 314 315 318 320 319 319 320 319 318 318 319 319 320 320 319 318 318 317 317 316 313 313 314 315 318 319 320 321 321 321 321 320 320 320 320 322 325 325 324
322 322 319 318 318 319 322 319 316 317 317 319 321 318 315 319 325 321 318 318 318 322 325 322 322 322 320 321 326 330 329 328 330 329 329 327 325 324 325 326 325 327 331 330 330 330 330 329 328 329 325 320 320 322 322 322 319 317 315 316 319 320 319 319 319 319 319 320 321 320 319 318 316 315 315 314 314 314 312 312 312 313 313 314 315 318 320 320 319 318 318 318 317 318 319 320 317
321 320 318 317 320 321 320 320 316 313 321 324 322 318 315 319 323 321 322 324 323 324 323 322 320 321 322 321 322 323 322 325 328 329 328 325 324 325 324 325 324 325 328 329 329 329 328 328 327 328 326 320 321 322 321 322 321 318 318 318 320 319 318 318 319 319 320 321 320 319 317 316 314 314 314 314 313 312 312 312 313 312 312 311 312 314 315 316 316 315 315 315 314 314 314 314 312
319 320 318 317 321 319 316 322 322 319 323 323 319 318 317 317 321 324 327 325 324 327 324 322 322 320 321 322 320 320 320 323 325 328 331 330 330 327 324 326 325 325 327 327 328 328 327 328 327 328 326 321 322 321 320 322 320 319 320 320 319 319 318 318 318 320 320 320 318 317 316 314 313 314 314 314 313 311 311 312 312 312 311 312 313 314 313 313 313 313 312 310 308 308 310 311 310
316 317 315 314 317 318 318 323 325 323 326 323 318 318 318 319 322 323 324 320 321 325 323 320 321 321 321 321 321 321 323 325 325 328 332 336 338 331 326 327 327 327 328 326 328 328 328 330 328 328 327 323 323 321 319 322 319 318 321 320 318 319 318 317 318 320 320 319 318 317 316 315 313 314 314 313 312 312 312 311 312 313 312 312 312 312 312 312 311 310 308 305 301 301 304 306 306
314 315 316 315 314 317 321 324 322 322 328 328 321 320 321 320 322 320 320 321 322 323 321 320 322 322 321 321 321 322 324 326 327 328 331 334 336 330 326 328 328 327 328 327 328 328 328 329 327 328 327 325 325 320 318 321 318 317 321 320 318 318 318 317 317 319 320 318 318 317 316 316 314 313 314 313 312 313 313 312 312 312 312 312 311 310 310 310 309 308 307 305 302 300 300 300 301
314 314 316 316 315 321 325 323 323 324 327 327 320 320 322 323 329 327 320 321 321 319 321 322 322 321 320 320 321 323 325 327 328 330 334 334 330 326 327 330 329 328 328 327 327 327 326 327 328 328 327 326 325 319 317 321 318 317 321 320 317 318 318 317 317 318 319 318 318 317 317 316 315 314 314 313 313 314 314 313 311 309 309 311 312 312 311 310 309 308 309 308 304 301 300 299 299
318 315 313 315 319 327 328 325 326 323 321 324 321 320 324 327 333 329 319 319 318 318 320 320 322 322 321 321 323 324 326 328 330 331 333 334 328 325 328 331 331 329 328 327 327 327 327 327 328 328 327 326 323 317 317 321 319 318 321 320 317 318 318 317 318 318 318 318 318 318 317 317 316 315 314 313 314 315 315 314 310 308 308 308 311 312 311 311 310 309 308 307 306 306 304 302 301
317 314 313 316 320 327 326 322 322 318 319 325 321 318 321 320 323 323 318 320 318 317 320 319 322 324 322 322 323 324 325 328 329 329 330 332 326 325 328 330 331 329 328 328 328 327 327 325 325 325 326 326 323 320 319 321 320 319 321 320 317 318 318 317 318 318 317 318 318 317 317 317 316 316 315 314 315 316 315 313 311 309 308 306 308 311 310 311 309 308 308 309 311 312 310 307 306
313 311 313 316 316 324 327 322 318 316 319 323 317 317 319 316 322 326 318 318 319 316 318 319 321 323 322 323 323 324 326 327 328 328 329 329 325 323 327 328 329 329 328 328 327 327 327 325 325 324 324 324 323 324 322 321 323 323 322 321 318 319 318 318 318 318 318 317 318 318 317 317 316 316 316 314 315 316 315 314 312 311 308 307 310 311 310 310 310 309 309 311 312 312 311 310 310
312 311 312 314 316 318 320 319 317 317 318 320 318 320 316 314 324 327 317 318 321 316 316 319 319 321 322 323 324 325 327 328 327 326 328 329 325 322 324 325 327 328 327 327 327 327 327 327 327 326 324 323 324 325 323 322 324 324 323 321 318 318 318 318 318 317 317 317 317 318 318 318 317 317 317 315 315 316 316 315 314 312 310 309 311 312 311 310 311 311 310 311 311 309 309 310 310
314 311 311 313 314 312 315 317 318 318 319 320 320 319 316 319 327 325 318 320 321 317 317 317 317 320 322 323 324 326 327 329 327 325 327 329 324 321 323 323 324 325 326 326 326 326 326 325 326 325 324 324 325 325 323 322 323 322 323 322 319 317 317 318 318 317 317 318 316 317 318 318 318 318 317 316 316 316 316 315 315 315 313 312 312 312 311 310 311 311 310 311 310 309 310 310 309
314 313 311 310 314 317 320 319 315 315 318 320 320 317 319 328 330 323 319 321 323 322 320 317 317 319 322 323 325 326 326 328 328 326 327 328 323 321 322 322 322 323 325 326 325 325 325 324 324 324 323 324 324 324 323 322 321 322 322 322 322 320 318 319 319 317 318 318 316 316 317 318 318 318 318 318 317 316 316 315 315 316 316 314 313 312 312 310 311 312 311 311 310 310 312 311 309
312 313 313 317 327 331 325 321 319 315 314 318 321 319 323 333 328 321 321 322 322 323 321 319 318 319 322 323 325 326 326 328 328 326 327 326 321 320 321 321 321 321 322 324 325 325 325 325 325 323 324 325 324 323 322 321 321 322 322 322 323 322 321 321 320 317 317 319 318 317 318 318 319 319 319 319 318 317 317 316 316 316 316 316 314 313 313 311 311 312 311 311 311 310 311 311 309
Wind_Speed
2 3 4 4 5 7 7 2 1 2 2 2 4 4 6 7 6 8 9 4 1 3 5 7 9 12 13 11 14 14 11 7 3 2 2 6 16 21 26 32 32 31 28 28 29 29 28 25 23 21 19 19 19 18 19 18 19 19 19 19 20 20 20 19 19 18 17 17 16 15 15 14 13 13 13 12 11 11 11 11 11 11 11 11 11 12 13 14 14 13 14 15 14 13 13 12 12
3 6 9 10 9 5 3 2 0 2 2 3 5 5 7 6 7 8 4 3 3 3 5 9 12 15 18 14 14 16 13 10 9 6 6 16 21 20 26 31 32 31 29 28 28 29 27 25 23 21 19 19 19 18 18 18 19 19 19 19 20 21 20 20 19 18 17 16 16 15 15 14 13 12 12 11 11 11 10 10 10 11 11 12 11 11 12 13 13 11 12 14 13 13 12 11 11
7 8 9 9 7 4 2 1 1 2 2 4 6 5 6 7 5 2 5 6 5 5 6 11 13 10 15 16 14 13 9 8 12 10 8 17 15 15 24 29 32 31 29 27 27 28 26 24 22 21 19 19 18 18 18 18 18 19 19 19 19 21 21 20 18 18 17 16 15 15 15 14 13 12 12 11 11 11 11 10 10 11 11 11 11 11 12 12 11 10 12 13 12 12 12 11 11
8 6 7 6 2 2 1 0 3 2 2 5 6 4 5 4 3 4 5 5 5 6 5 9 10 8 14 16 11 11 8 7 11 11 8 13 16 20 24 27 31 30 28 27 26 26 25 24 22 20 19 18 18 18 18 18 18 19 19 19 19 20 20 19 18 17 16 16 15 15 14 13 13 12 12 11 11 11 11 11 11 12 11 11 10 11 11 11 9 9 11 12 12 12 11 10 9
7 5 8 6 1 1 0 1 2 3 4 5 4 4 6 4 3 5 3 4 5 5 5 7 6 7 14 12 6 6 7 8 11 13 11 16 25 26 24 26 29 28 27 26 26 26 24 23 22 21 19 18 18 17 18 18 18 19 19 19 19 19 20 19 18 17 16 16 15 15 14 13 13 12 12 12 11 11 11 11 11 12 11 11 11 10 11 11 9 11 12 12 12 11 8 7 7
6 7 8 5 2 1 0 2 3 3 6 6 5 6 5 3 6 5 3 4 5 5 6 8 10 10 10 8 8 5 5 8 10 13 16 22 28 28 26 26 26 26 26 26 26 25 24 22 21 20 19 18 17 17 18 18 18 18 18 18 18 19 19 19 18 17 17 16 15 14 13 13 13 13 12 12 12 12 12 11 11 12 11 10 10 10 10 11 10 12 12 10 10 8 7 6 5
6 6 3 2 2 1 0 3 5 5 7 8 8 7 4 2 3 3 4 4 5 4 6 9 14 14 7 6 7 10 11 13 11 16 22 26 28 28 27 25 24 24 24 26 26 25 23 22 21 20 19 18 17 17 17 17 18 18 18 17 18 18 19 19 18 17 16 15 15 14 14 14 13 13 13 12 12 12 13 12 12 12 11 10 10 10 10 10 10 10 9 7 7 6 6 5 4
9 5 1 1 1 1 2 4 5 5 7 10 10 8 6 2 3 3 5 4 3 1 6 11 17 13 8 10 7 9 18 21 21 25 28 28 26 25 24 24 24 23 23 26 26 24 23 21 20 19 18 17 16 17 16 17 17 17 17 17 17 18 19 18 17 17 16 15 15 15 14 15 14 13 13 12 12 13 13 13 12 11 10 10 10 9 9 9 8 7 6 5 5 5 5 5 5
8 4 1 0 1 2 3 4 6 7 9 11 12 10 5 1 5 4 3 4 3 1 5 12 18 12 8 15 10 6 15 23 29 29 28 27 24 23 24 25 24 24 25 27 26 25 23 21 20 19 18 16 15 16 16 16 16 16 17 17 17 18 18 18 17 16 15 15 14 15 15 15 14 13 12 11 11 12 13 13 12 11 10 10 9 8 8 8 7 6 5 5 5 5 6 6 6
3 4 1 1 1 3 4 5 6 7 9 11 13 11 5 3 5 5 0 3 6 5 5 15 17 14 13 13 8 5 13 23 27 26 26 27 25 24 24 24 25 26 27 28 26 25 23 21 21 20 18 16 15 15 15 15 15 16 16 17 17 18 18 17 16 16 15 14 14 14 14 14 13 12 11 11 10 10 11 12 11 11 10 10 9 8 8 8 8 7 7 7 7 6 7 7 6
1 3 2 1 2 4 5 5 7 7 8 9 11 8 3 3 4 5 4 1 5 5 8 17 13 14 15 9 5 8 18 23 23 24 25 26 25 25 24 23 25 26 29 29 26 24 23 21 20 19 17 16 15 14 14 15 15 16 16 17 17 17 17 16 16 15 14 14 14 14 13 12 11 11 10 9 10 9 10 11 11 10 10 10 9 8 8 8 9 9 9 9 8 8 8 7 6
1 3 1 2 3 4 5 5 7 8 7 5 6 3 5 7 5 6 5 3 3 8 2 11 11 12 12 7 4 8 19 21 22 24 24 26 25 25 25 23 23 25 29 28 26 24 22 21 19 18 17 16 15 14 13 14 14 16 16 17 17 17 16 16 15 14 14 13 13 12 12 11 11 10 9 8 8 9 9 10 10 10 10 9 9 9 8 8 9 9 10 10 8 8 8 7 6
3 3 1 3 4 4 5 6 7 7 5 3 2 4 4 7 6 6 6 6 6 10 3 11 13 11 9 6 5 6 13 19 25 24 23 26 25 26 25 23 24 26 27 27 26 24 22 21 19 18 17 16 15 14 13 13 14 15 16 17 17 16 16 15 15 14 13 13 13 12 11 10 10 9 9 8 7 7 8 8 9 9 9 9 8 9 8 8 8 8 9 10 8 8 7 6 6
4 3 2 3 4 4 5 5 6 6 4 3 0 4 5 5 5 6 6 5 6 5 7 13 13 13 8 6 6 3 9 20 26 24 24 26 26 27 25 25 25 25 25 26 26 24 22 20 19 18 16 15 14 13 13 12 13 14 15 17 17 16 16 15 14 13 13 13 12 11 10 9 9 9 9 9 7 6 7 7 7 8 8 8 8 8 7 8 7 8 9 9 9 8 7 5 5
5 2 2 3 4 4 5 5 7 6 6 4 1 1 3 3 3 3 4 2 3 3 9 9 8 9 9 9 7 6 13 23 27 25 24 26 27 27 26 26 26 25 24 25 25 24 22 21 19 18 16 15 14 13 13 13 12 13 14 15 16 15 16 15 14 13 13 13 13 12 11 9 9 10 10 9 8 7 7 7 7 7 7 7 7 7 7 7 7 8 9 9 9 8 7 6 6
4 2 1 2 4 5 4 5 7 6 5 3 2 3 3 3 2 1 4 5 2 4 9 3 2 7 11 10 11 16 21 26 28 28 25 24 26 27 26 26 26 25 23 24 24 23 23 22 20 18 17 15 14 14 14 14 13 13 12 14 14 14 15 15 14 14 14 14 14 13 12 11 10 10 10 10 9 8 7 7 6 6 6 6 6 6 6 6 7 9 10 10 9 9 8 8 8
3 2 2 3 4 5 5 5 5 4 2 4 6 8 7 5 3 2 2 5 1 7 12 5 4 10 11 11 19 25 26 29 30 29 24 22 24 25 24 24 25 24 23 24 23 23 22 22 21 20 19 17 16 15 14 14 15 14 13 13 14 14 14 14 15 15 14 15 15 14 13 13 11 12 12 11 10 9 7 6 6 6 6 6 6 5 5 6 7 9 10 10 10 10 9 9 8
3 2 3 4 5 6 7 7 5 2 1 4 4 6 3 3 3 3 3 2 3 11 13 9 11 12 14 20 27 27 28 30 29 27 22 19 19 19 20 21 24 23 24 25 24 23 21 21 22 22 21 19 18 16 15 15 16 16 15 15 14 15 14 14 14 14 14 14 14 14 14 14 13 12 11 11 9 9 8 7 6 6 6 5 6 5 5 5 6 8 9 9 10 10 9 9 9
4 2 4 5 6 8 9 9 8 3 1 2 3 4 1 3 3 1 1 2 4 13 11 12 16 14 17 23 25 25 28 28 26 25 20 18 17 16 17 20 23 21 23 25 24 23 22 22 22 23 22 19 19 18 17 17 17 17 17 17 16 16 15 14 14 14 14 14 14 14 14 14 13 12 10 9 9 9 9 8 6 6 6 5 6 5 5 5 6 7 9 9 10 10 9 9 10
5 4 4 5 6 8 10 10 10 5 2 4 4 5 3 5 4 2 1 4 2 11 11 12 16 16 16 17 20 24 25 23 24 23 19 18 18 17 18 19 21 22 23 23 22 21 21 22 22 21 20 19 19 19 18 18 18 18 18 18 17 17 15 14 14 14 13 13 13 14 14 14 14 14 12 11 10 10 11 10 8 7 7 6 6 6 5 5 5 6 8 9 9 10 10 10 9
4 5 6 7 6 9 11 9 8 5 6 6 5 6 4 5 3 1 2 4 3 7 13 15 18 18 18 17 17 20 20 18 20 20 18 17 17 17 17 19 21 23 23 21 20 21 20 21 21 19 19 19 18 19 19 20 20 20 19 19 18 17 16 15 14 12 10 12 13 14 15 15 15 16 15 14 12 11 12 12 10 9 8 7 7 6 6 6 6 7 8 8 9 9 10 10 8
4 6 8 9 8 8 11 8 5 5 7 7 6 4 3 4 1 1 1 2 1 6 15 17 18 18 19 18 16 17 16 15 16 17 17 17 16 16 16 19 21 23 23 22 21 21 21 21 21 19 18 18 18 18 19 21 22 21 19 19 19 17 15 16 14 12 11 12 14 16 17 17 16 16 15 14 11 10 11 13 12 12 10 8 8 7 6 7 8 8 8 7 8 9 9 8 5
4 5 7 9 10 8 9 8 2 4 6 6 6 5 4 3 4 4 2 5 8 14 18 17 16 16 17 17 15 15 14 14 14 16 18 18 17 17 17 19 21 23 24 23 22 21 22 23 22 21 19 18 17 17 18 21 21 20 18 18 19 18 15 16 16 15 15 14 15 16 17 18 17 15 14 12 10 9 10 12 13 13 12 10 9 9 7 7 8 8 7 7 8 7 6 4 4
7 6 7 8 9 8 8 8 1 6 3 3 5 6 6 5 4 3 4 12 16 18 17 17 15 14 15 14 14 14 13 12 13 17 20 20 20 20 20 21 23 25 25 24 22 22 23 26 25 20 17 16 15 15 17 17 17 18 17 15 15 16 15 17 17 17 17 16 17 17 16 18 16 14 13 11 10 9 10 12 13 13 13 12 10 10 10 8 9 9 7 7 6 5 4 4 7
8 8 8 8 8 8 9 8 3 4 1 4 6 6 7 7 5 3 10 15 18 18 16 16 14 13 13 12 13 13 12 11 12 16 18 20 23 22 21 21 24 26 27 24 20 21 23 25 24 19 17 17 16 17 17 16 16 15 15 12 9 10 12 14 16 16 18 18 18 18 18 17 15 14 12 10 9 8 9 11 13 14 14 13 12 11 11 9 10 11 9 8 6 6 8 7 8
8 9 7 6 7 10 8 6 5 2 2 4 6 7 9 9 6 3 12 17 17 19 18 16 15 14 12 11 11 10 11 10 9 12 17 23 25 24 22 22 23 24 26 23 22 24 23 25 25 21 22 21 19 19 17 17 16 13 14 12 9 8 8 10 11 13 15 17 17 17 18 17 14 14 12 10 10 9 10 12 13 15 15 15 13 12 11 10 9 10 10 10 9 10 10 9 9
5 5 4 5 7 10 7 3 5 5 5 6 7 8 10 8 4 2 11 17 17 19 18 16 15 14 13 11 9 8 9 10 11 15 18 20 22 23 23 22 22 24 26 23 23 25 24 25 24 21 23 21 19 16 13 14 12 10 11 10 8 7 8 11 10 9 9 12 16 17 16 14 13 15 15 13 13 14 14 13 13 14 15 15 12 11 11 11 9 10 10 9 10 11 10 10 9
6 4 3 6 6 8 6 4 6 5 5 9 8 7 8 4 5 5 9 14 15 18 16 15 14 12 12 12 9 8 6 9 15 16 15 15 18 22 22 22 23 24 25 22 21 24 23 22 20 20 21 16 14 14 10 10 7 7 8 7 8 10 9 11 10 9 8 10 14 15 14 13 16 18 17 15 14 16 15 12 12 14 14 13 11 12 13 12 10 11 12 9 10 12 12 11 9
8 4 2 6 7 8 7 5 7 5 4 8 7 5 7 5 7 8 9 9 11 17 17 15 13 11 12 11 10 7 7 15 15 11 15 19 21 23 23 23 24 22 22 21 21 22 21 20 19 20 17 13 13 13 11 10 10 8 8 8 9 10 10 10 11 11 12 13 13 14 15 18 22 19 16 17 16 16 14 12 12 12 12 13 12 14 14 13 11 12 13 11 12 15 16 13 11
7 4 1 4 6 7 8 6 9 8 5 7 5 2 7 8 7 9 9 7 8 13 15 13 12 11 11 9 9 8 9 15 13 13 19 24 23 24 24 22 21 21 23 24 22 20 21 19 17 16 14 12 11 10 11 11 10 12 13 12 11 11 11 11 11 12 14 16 16 17 21 23 22 16 13 16 17 15 14 13 10 9 12 14 14 14 13 12 12 12 13 13 12 15 16 15 12
3 3 2 3 3 7 7 8 10 9 6 8 6 3 7 8 6 10 10 7 7 10 12 12 11 10 10 8 8 9 8 11 12 15 22 25 23 24 22 20 22 25 27 25 21 19 20 18 13 14 14 12 9 7 9 9 8 9 11 11 10 10 9 10 10 11 12 13 14 16 18 17 14 12 12 14 16 14 13 13 10 9 12 16 15 13 12 12 12 12 13 13 13 13 14 14 13
2 2 4 3 5 7 6 9 13 10 6 9 8 4 6 7 6 10 10 6 5 8 12 14 13 12 11 8 8 9 8 10 13 16 21 21 20 23 22 22 26 27 26 24 21 21 20 17 14 15 15 12 11 10 9 8 7 6 7 7 8 7 6 7 10 11 11 10 10 10 11 12 11 11 11 12 14 13 12 13 12 11 14 16 15 13 13 13 13 14 14 13 12 13 13 13 12
2 4 5 4 6 7 6 10 15 12 6 8 8 4 5 5 6 8 7 6 4 5 11 16 15 13 13 9 9 9 8 9 10 13 16 15 16 20 19 23 29 25 23 23 22 22 22 18 17 18 17 13 13 12 11 10 9 8 8 7 7 7 6 8 11 12 12 10 9 9 10 11 12 11 11 10 9 11 14 15 13 12 15 16 15 14 14 14 15 15 15 12 11 12 13 12 12
3 4 6 6 7 6 5 7 10 11 7 7 7 6 5 5 4 8 6 7 6 5 10 14 13 12 12 10 9 9 9 10 9 11 16 14 17 21 16 20 28 25 22 23 22 23 23 21 21 20 17 14 14 14 14 13 10 10 9 9 9 10 10 10 12 12 12 10 8 9 9 10 11 11 11 10 8 9 13 14 12 13 16 17 17 16 14 15 14 14 14 13 11 12 13 12 12
3 4 4 6 7 5 6 6 8 11 9 7 7 8 7 5 4 9 7 7 6 6 10 12 11 12 11 10 10 9 11 11 11 17 21 18 19 22 18 21 28 26 24 23 22 24 24 23 21 19 16 16 17 16 15 12 11 11 9 9 12 15 16 15 14 13 11 9 7 7 7 8 10 9 9 8 6 6 9 11 12 13 15 17 18 17 15 15 14 13 14 15 12 11 10 10 11
5 5 3 6 6 5 6 8 8 10 8 7 8 8 6 6 7 8 7 7 7 5 10 12 11 11 10 10 10 10 12 10 12 21 26 21 19 21 19 22 29 28 27 25 23 25 25 24 22 19 18 18 18 16 15 14 13 13 12 13 15 17 19 18 16 14 13 10 8 8 8 9 10 8 8 7 5 5 8 9 11 12 15 18 18 17 15 14 15 14 14 15 14 11 9 7 9
5 6 5 8 7 6 3 9 10 7 6 6 7 6 7 6 8 8 7 8 8 6 10 12 12 12 10 10 10 10 10 8 12 20 25 23 22 23 20 22 27 28 29 26 25 27 26 25 24 21 20 18 19 18 17 17 14 14 14 14 16 17 18 18 17 14 13 13 11 11 10 11 10 8 7 6 6 6 7 8 9 11 15 17 16 14 13 13 14 14 13 14 13 11 9 6 8
5 5 5 8 7 7 3 7 7 4 6 3 1 1 6 6 6 7 7 7 7 7 11 12 12 10 9 11 12 11 9 8 10 14 20 23 24 26 24 23 24 27 31 28 26 29 27 25 24 22 20 18 20 19 18 18 15 15 15 15 17 18 17 16 15 12 10 10 11 11 11 11 10 9 7 6 6 6 6 7 8 10 12 14 14 13 13 13 14 14 13 13 11 8 5 4 7
4 4 5 6 6 5 6 4 3 5 4 2 5 5 6 7 7 4 7 7 5 7 10 12 12 10 9 12 12 10 9 8 8 7 11 17 23 26 24 23 25 27 31 29 27 29 27 25 24 22 20 19 20 18 17 17 14 13 16 18 20 21 18 15 15 15 12 11 10 11 11 10 9 8 9 10 9 7 5 6 8 7 7 9 12 13 13 13 13 13 12 12 10 7 5 5 8
3 3 3 6 6 4 5 3 4 5 2 2 3 5 5 6 8 6 3 7 6 7 8 10 11 12 13 13 13 13 11 10 9 8 9 13 21 26 25 24 26 28 30 29 28 29 27 26 25 22 21 19 19 18 17 17 15 16 20 22 23 23 21 19 18 16 14 12 11 10 10 11 11 10 11 11 11 11 8 6 7 7 6 6 8 11 12 12 12 11 11 11 9 9 8 6 6
4 4 4 5 8 5 4 3 3 5 4 2 5 6 6 4 6 8 5 3 6 6 8 8 6 9 13 12 12 13 14 13 13 11 11 11 16 24 26 26 26 27 29 29 30 30 27 28 26 23 22 20 18 19 20 20 20 23 26 25 24 23 21 20 19 16 14 14 13 12 11 10 11 12 11 10 9 10 11 8 9 8 6 6 5 6 8 8 8 9 9 10 9 8 8 6 5
4 4 7 7 9 7 3 2 5 6 5 2 5 3 6 6 5 8 7 2 3 6 7 8 6 9 14 13 11 12 13 13 13 13 12 12 15 21 24 26 25 27 30 31 31 30 28 29 27 24 23 22 20 22 22 20 22 24 25 24 23 23 22 20 20 20 18 16 15 13 12 11 11 12 12 11 10 10 10 11 12 12 9 8 6 5 6 7 7 7 6 6 7 7 7 7 8
3 4 4 5 8 8 4 2 4 3 2 3 5 5 4 6 6 7 7 5 3 6 7 8 6 9 14 13 11 12 11 9 11 13 14 13 15 18 21 25 27 28 32 33 32 30 29 29 28 25 25 23 21 22 22 20 21 21 19 19 20 23 22 20 21 21 20 17 16 14 14 13 13 13 13 12 12 12 11 10 11 11 12 13 13 11 9 8 8 7 6 4 4 5 7 8 9
3 4 2 5 7 7 6 2 2 4 3 3 2 6 2 4 6 7 5 6 6 6 6 7 7 7 12 15 15 14 13 13 14 14 14 13 15 19 23 28 30 31 34 35 33 30 29 30 28 25 26 25 22 22 22 21 20 18 17 18 21 23 22 22 24 22 19 18 17 16 16 15 14 13 12 11 12 12 13 13 11 11 13 13 14 15 14 13 13 11 10 9 9 7 6 6 8
6 5 3 4 6 5 5 3 3 3 3 3 4 4 3 4 6 6 4 5 7 7 7 7 6 4 6 12 16 17 15 14 13 12 12 12 15 22 26 30 31 33 37 37 35 33 30 29 28 26 26 27 25 22 22 20 19 18 20 22 24 24 24 25 25 21 19 19 19 17 16 15 13 12 11 10 10 11 14 16 14 13 12 10 11 13 13 12 12 12 12 12 13 13 10 9 10
6 4 1 2 4 5 5 3 3 0 4 4 6 3 2 4 5 5 5 5 6 5 6 6 7 8 7 8 12 12 9 8 9 9 9 11 19 27 30 32 32 32 36 38 37 35 32 30 29 26 26 28 27 24 23 21 20 20 23 24 26 27 27 26 24 21 21 21 21 18 16 15 14 13 12 11 11 10 12 15 15 15 13 10 10 10 10 10 11 11 11 11 13 15 14 14 15
4 2 2 4 4 5 5 4 2 2 1 5 5 4 3 3 5 4 4 5 5 6 5 6 8 10 10 9 9 8 6 5 7 5 3 3 12 20 23 26 25 25 30 34 35 36 35 32 31 29 27 29 29 27 25 23 21 22 24 26 29 30 28 26 25 24 23 24 21 18 17 16 15 14 13 13 12 11 11 13 15 15 13 13 13 12 12 11 11 11 10 9 10 12 13 13 13
3 4 2 4 4 4 3 5 3 1 4 4 2 2 3 3 5 5 5 4 3 6 6 7 9 11 10 9 8 9 9 8 8 7 5 3 3 10 15 18 19 22 27 31 34 37 36 33 33 32 30 32 32 29 28 26 23 23 24 28 30 29 27 27 27 27 27 26 22 20 19 17 15 14 13 12 12 12 12 13 14 14 13 14 14 14 13 12 12 11 10 9 9 9 9 9 9
3 5 4 4 3 3 2 3 2 1 5 3 5 6 3 4 6 7 5 1 4 5 6 9 10 10 10 9 9 9 9 9 8 6 5 4 2 6 12 16 18 24 31 35 37 38 38 36 35 33 30 33 34 32 30 27 25 23 25 30 30 28 28 28 27 28 28 26 23 22 21 19 17 15 13 13 13 12 12 13 14 13 13 13 12 11 11 12 11 11 11 11 11 11 9 8 9
2 3 3 3 1 1 2 2 1 1 5 4 5 5 4 4 5 7 7 5 6 7 7 9 10 10 9 9 9 10 9 8 7 5 5 4 4 3 6 12 18 24 28 32 35 36 36 35 33 29 27 30 33 32 30 28 26 24 25 30 29 28 30 28 28 29 27 26 25 24 21 19 18 16 15 13 13 13 11 10 11 11 12 12 11 10 10 11 11 11 12 11 11 11 10 10 10
3 4 5 5 4 3 3 1 1 1 4 5 4 2 3 4 4 7 7 5 8 10 9 9 8 8 8 10 10 10 8 7 6 6 6 5 6 7 5 4 15 25 28 31 35 36 36 34 33 29 26 29 31 30 28 27 26 24 25 30 30 29 31 28 28 29 27 27 27 24 21 19 17 17 16 14 13 13 11 9 9 9 11 12 11 10 10 10 10 10 10 9 9 10 10 10 10
4 1 5 4 4 5 3 3 5 4 1 3 2 1 4 4 5 7 3 5 9 10 10 10 8 7 9 10 9 9 8 7 7 7 7 7 9 11 9 4 10 24 30 29 27 25 23 22 24 27 29 32 31 30 29 28 27 24 23 30 31 30 31 29 29 30 28 28 27 23 21 19 18 18 17 15 14 13 11 9 8 8 9 11 11 11 11 9 8 8 8 9 9 8 8 9 9
3 1 2 4 3 7 4 1 2 2 1 3 3 3 4 2 3 5 0 6 8 9 9 9 8 9 11 9 7 8 7 6 7 6 6 6 8 12 8 7 9 13 20 21 20 18 15 11 11 14 17 22 23 25 30 30 28 24 21 26 31 30 30 29 29 31 28 27 27 23 21 20 20 20 18 16 15 14 11 8 8 8 7 9 10 10 9 7 6 7 8 8 8 7 5 6 7
1 2 3 5 3 4 4 1 1 1 1 3 4 4 4 3 3 4 3 7 6 7 9 9 9 11 11 9 8 8 7 7 7 5 5 5 7 12 11 12 18 18 18 20 19 20 19 15 13 10 8 13 16 20 28 30 26 22 18 22 27 28 28 28 29 30 28 27 27 24 22 22 22 22 20 18 17 15 12 9 9 9 8 9 10 9 8 7 6 6 7 6 6 6 5 4 4
1 4 3 3 2 1 1 2 1 1 1 3 4 4 3 3 3 4 5 7 6 6 8 10 11 10 9 9 10 9 8 7 6 4 4 5 7 13 16 16 18 19 19 20 19 18 19 20 22 23 20 22 24 23 26 28 23 21 19 22 26 26 26 27 28 28 26 26 26 24 24 24 24 23 22 19 18 15 13 11 10 10 9 10 11 10 8 8 8 7 6 7 6 5 5 4 4
2 4 3 1 4 3 1 2 3 3 3 3 3 3 3 2 4 6 6 5 4 5 6 8 9 10 9 9 9 9 8 7 6 3 3 5 8 13 17 19 19 18 18 21 25 25 24 25 28 31 29 27 27 26 27 26 23 22 20 21 25 25 24 25 26 27 26 25 25 23 24 25 25 25 23 20 18 15 13 12 11 10 10 10 11 11 10 9 10 8 8 9 7 6 7 7 5
1 1 2 2 1 1 2 1 1 2 2 1 1 2 4 4 4 3 4 2 2 5 7 6 6 8 9 9 9 8 8 8 6 4 4 5 8 13 17 19 21 22 21 21 26 28 28 30 32 34 32 28 25 25 27 25 23 22 18 16 19 22 22 20 24 28 25 24 25 23 23 24 25 26 24 21 18 16 13 12 12 12 11 11 12 12 11 11 11 10 10 10 9 8 9 9 7
1 2 3 2 1 3 4 3 4 1 1 2 3 1 5 5 4 3 2 3 2 2 6 7 7 8 8 8 9 8 8 8 7 5 4 4 7 12 15 18 21 23 23 21 20 20 23 29 33 32 30 28 24 24 25 25 23 20 18 16 16 18 17 16 22 28 24 23 23 21 20 23 25 26 25 21 19 16 14 13 13 13 12 11 12 13 13 13 12 11 11 12 11 11 12 11 10
Wind_Direction
248 293 319 316 298 303 291 219 117 273 178 255 253 245 255 247 251 276 283 287 27 17 35 61 53 66 84 87 92 75 52 48 34 119 115 113 107 112 127 132 137 142 145 147 146 143 142 144 147 150 151 151 150 150 148 147 147 149 150 149 146 145 141 136 132 129 130 129 129 128 125 123 120 118 117 116 115 115 114 113 110 106 102 97 98 99 97 95 93 94 97 98 94 96 95 88 90
257 296 304 298 281 280 276 182 139 252 162 278 255 232 254 264 268 272 287 14 61 58 41 56 54 73 91 91 87 75 57 52 67 80 86 109 109 112 127 135 141 144 146 148 146 144 144 146 148 150 152 151 150 148 147 147 147 150 151 152 151 148 145 141 135 132 132 132 132 131 128 126 123 122 121 118 117 116 115 113 110 106 105 103 100 100 102 99 98 103 103 99 98 103 97 88 92
277 290 295 292 267 238 287 296 202 233 174 249 258 242 254 258 254 303 58 66 54 45 45 56 51 57 83 76 66 74 80 71 82 89 104 118 113 114 128 138 143 145 147 148 147 146 145 147 148 150 151 150 149 147 147 147 148 151 152 153 152 149 148 145 139 135 133 135 136 134 132 130 127 123 121 120 119 119 119 113 108 106 107 106 101 101 103 102 106 112 104 98 100 102 95 91 93
282 279 284 296 278 221 321 325 196 207 217 246 260 265 277 262 148 100 66 71 60 46 49 69 56 36 66 73 69 77 90 86 94 102 115 127 126 127 132 139 142 143 145 148 149 147 146 148 149 150 150 150 149 147 147 147 148 151 153 153 152 151 150 148 144 138 136 138 139 138 135 132 129 124 120 118 117 117 119 117 111 109 109 111 111 111 111 109 112 111 104 101 101 99 94 91 91
281 269 272 277 284 246 152 253 215 189 222 246 259 278 297 311 65 87 79 74 85 76 69 94 93 59 61 61 61 81 88 79 89 96 101 122 126 127 132 136 139 141 144 149 151 148 148 149 150 150 150 149 148 147 146 146 147 150 153 154 153 153 152 151 147 142 140 142 142 141 138 135 130 124 120 115 113 111 114 117 115 116 116 118 119 119 119 117 112 106 106 104 102 101 93 88 94
284 289 274 246 249 296 31 265 266 245 235 242 258 277 291 348 21 32 70 76 70 72 73 93 109 97 77 66 55 50 102 105 96 100 109 126 129 128 132 135 137 139 144 151 152 150 149 150 151 151 149 148 146 144 143 144 145 148 152 154 155 155 154 152 149 146 145 145 145 143 141 137 130 124 120 114 110 107 109 114 117 120 121 122 120 120 122 123 119 111 110 108 104 100 89 85 97
271 294 281 217 273 286 173 251 258 264 254 247 251 264 260 150 95 14 14 53 25 25 78 95 106 99 85 95 63 38 87 115 112 119 126 132 133 131 134 135 134 138 147 153 152 151 150 151 151 150 149 145 144 141 140 141 143 146 150 154 155 156 155 154 152 150 149 148 147 145 142 137 129 124 121 117 111 107 110 115 121 125 125 124 123 124 126 129 128 118 112 106 97 89 84 80 91
258 268 316 123 298 249 193 250 251 248 261 261 259 259 252 234 111 50 16 35 358 19 129 115 100 87 69 86 82 56 85 106 113 122 130 134 134 132 134 131 132 140 151 155 152 152 150 152 151 150 148 144 142 138 138 139 141 146 149 153 154 156 156 156 155 153 152 150 149 145 142 136 130 126 124 119 113 110 111 117 124 126 126 124 126 128 129 129 129 122 111 96 85 82 79 76 89
248 233 301 265 222 263 239 247 248 241 254 261 267 263 243 279 77 76 339 334 337 264 169 122 98 94 92 85 90 83 89 107 116 121 129 132 132 133 135 134 139 145 152 156 153 152 151 153 152 150 148 144 141 137 138 139 143 147 149 152 154 157 157 158 157 156 154 150 149 146 144 138 132 129 125 119 112 111 112 117 123 124 124 122 127 130 130 128 128 125 110 96 95 92 83 77 81
229 204 221 275 234 275 265 253 250 247 251 252 261 258 224 165 111 109 121 314 326 339 85 97 94 107 108 94 95 104 108 115 117 119 128 132 131 136 138 140 149 149 151 154 153 152 152 153 152 150 148 144 142 138 139 142 146 149 150 153 155 158 159 160 160 158 156 152 150 148 147 141 135 132 128 123 116 114 116 119 122 123 124 126 132 133 129 126 124 117 106 103 102 98 87 82 79
247 230 186 259 272 261 254 257 260 260 257 255 261 253 189 134 100 92 83 356 316 325 103 97 94 109 103 101 103 120 123 119 118 120 129 134 134 136 136 140 149 149 149 152 153 153 152 153 152 150 148 144 143 141 142 145 148 150 151 153 156 160 161 161 160 158 156 153 152 151 151 145 140 137 132 129 125 124 125 124 124 123 125 129 131 129 128 125 120 111 104 103 103 100 92 87 85
249 272 168 226 241 233 243 257 265 271 278 285 286 284 111 104 83 85 59 20 356 316 250 120 126 120 103 109 116 129 125 122 125 125 130 135 135 134 135 139 143 144 147 151 152 152 151 151 151 150 148 145 144 144 146 147 149 152 152 156 159 163 162 161 160 157 156 155 155 154 154 150 146 144 140 136 132 133 134 130 127 127 129 131 127 122 128 128 121 113 108 107 107 107 101 86 77
214 258 217 237 236 238 257 261 269 283 302 319 324 336 58 91 65 70 47 8 4 335 342 123 130 112 97 117 124 131 126 129 132 132 135 136 136 135 135 137 138 143 147 151 152 151 151 150 150 151 151 149 149 149 150 152 153 154 155 159 162 163 162 160 159 157 157 158 158 158 157 155 153 151 149 147 145 142 141 139 133 130 131 132 129 126 130 135 129 121 117 115 116 118 112 87 73
205 238 211 251 270 269 273 270 282 294 278 252 108 360 23 61 43 61 62 6 352 4 87 116 118 96 100 124 121 144 139 139 136 137 138 136 139 136 134 137 139 145 149 152 151 150 149 149 152 153 155 155 154 154 155 157 157 158 161 164 165 164 164 161 159 159 160 160 160 158 159 161 160 160 161 162 166 162 154 151 143 136 134 134 136 135 137 140 136 129 126 123 124 123 117 99 83
206 241 219 256 285 282 279 271 279 285 268 246 210 101 95 73 33 66 107 75 351 84 100 118 116 95 136 148 145 173 153 145 140 136 132 131 138 136 138 143 143 146 150 152 149 148 149 153 156 156 160 162 163 164 164 164 163 163 165 169 170 168 165 163 162 163 164 163 162 158 161 167 166 166 169 172 176 179 171 163 155 146 141 143 144 144 145 144 141 137 133 128 124 120 119 114 102
210 229 250 274 276 280 275 266 277 280 283 290 353 26 73 72 43 16 135 121 357 65 87 109 117 118 155 154 148 155 147 142 136 133 131 128 132 136 141 145 146 146 149 150 148 151 155 158 159 161 166 168 171 174 172 169 168 169 171 176 178 174 169 167 168 170 171 170 169 165 166 169 170 172 175 182 186 190 183 169 163 158 153 154 157 158 158 149 146 143 137 130 124 121 120 121 114
250 227 250 281 263 267 254 250 263 238 302 7 35 35 22 5 28 360 77 106 68 68 76 63 90 127 145 136 138 143 141 137 133 132 132 129 129 135 140 143 147 145 145 148 152 158 161 161 161 167 173 175 178 181 181 176 173 173 176 181 182 181 177 174 175 179 180 178 174 172 172 170 173 178 178 186 194 197 194 179 170 170 167 166 166 170 169 155 149 151 143 134 129 126 120 121 118
254 200 212 248 244 250 249 252 268 220 38 20 63 69 35 332 18 18 12 89 119 78 76 81 86 108 118 124 135 137 136 135 134 133 131 134 135 138 140 145 148 142 142 150 157 159 160 164 167 172 177 180 182 185 187 183 180 177 179 184 185 184 183 182 183 185 187 186 181 178 176 170 174 182 180 188 199 200 201 197 181 176 177 175 173 173 175 164 157 159 155 145 137 133 125 127 127
231 199 200 227 233 249 258 265 283 280 9 60 99 82 76 326 7 40 305 290 102 86 83 92 92 99 110 123 134 133 134 135 137 137 137 143 147 148 141 147 150 139 145 156 159 158 161 168 173 177 178 181 185 188 190 190 188 182 181 186 187 185 185 187 188 189 190 191 187 183 179 170 174 180 180 190 199 200 206 210 195 181 181 180 177 173 177 176 169 169 168 163 151 145 138 137 140
218 210 228 244 245 262 271 280 293 292 26 55 64 45 9 329 337 152 181 318 72 114 119 114 112 121 123 128 134 134 137 139 142 142 144 148 154 158 146 149 149 136 146 159 159 161 168 171 175 180 181 181 184 189 190 192 193 188 185 190 191 187 185 189 194 194 195 196 193 188 182 174 177 180 183 191 192 191 199 208 206 194 186 183 180 174 177 181 182 183 181 180 173 161 152 146 144
209 196 223 248 257 274 274 291 329 356 34 41 32 23 348 302 293 129 52 350 339 127 138 138 135 138 137 139 140 143 146 146 146 145 148 152 157 159 147 149 148 136 143 154 155 159 166 170 174 182 185 182 184 191 193 192 192 190 190 190 186 182 183 192 198 194 193 201 199 192 187 182 182 186 192 196 193 191 189 197 209 206 196 190 183 180 181 183 191 191 187 192 190 175 163 156 147
223 214 222 240 246 267 277 287 352 17 20 21 2 351 288 272 304 282 217 184 254 138 142 142 141 143 143 145 147 152 154 150 149 150 154 157 156 152 142 141 142 141 144 146 150 156 160 166 170 176 179 178 179 183 187 189 187 188 193 188 178 173 180 190 194 193 193 204 206 196 192 191 191 194 202 201 200 197 184 190 207 208 204 199 190 190 190 189 194 191 182 187 189 175 163 161 168
225 248 235 243 243 250 277 283 329 55 29 6 327 307 293 326 333 278 216 131 131 136 139 138 142 147 144 145 149 155 157 154 152 153 156 154 150 148 143 137 139 148 148 144 149 155 163 168 167 168 172 175 176 172 175 184 185 186 188 181 177 174 181 193 196 201 201 203 207 202 194 194 197 201 203 203 208 201 181 189 205 209 205 200 196 198 204 202 192 189 180 165 165 165 163 180 189
221 249 243 250 259 260 274 282 5 83 63 307 295 313 315 322 311 264 112 110 124 130 132 134 141 143 142 148 152 153 155 151 150 153 154 150 147 146 143 139 143 150 147 144 148 148 155 164 164 163 168 173 176 170 172 183 188 189 185 177 181 183 194 210 211 210 210 204 208 213 203 194 199 204 198 202 215 200 182 193 209 215 209 202 204 206 211 210 193 193 190 166 157 165 180 181 160
226 233 238 250 272 277 276 284 325 79 77 274 280 298 288 274 262 184 122 119 126 127 126 131 137 139 145 153 153 152 151 148 149 150 145 139 139 142 143 146 149 149 147 149 152 146 146 158 163 157 157 169 176 173 175 184 187 191 193 184 175 179 194 215 219 218 215 207 210 219 209 194 198 203 194 194 207 200 188 201 210 214 216 213 213 214 213 206 198 201 197 182 172 175 182 166 146
226 220 217 232 268 278 273 285 311 310 240 246 252 255 260 256 248 164 129 133 132 128 130 138 142 147 152 154 154 151 140 144 151 138 126 125 131 140 147 152 155 152 149 150 151 151 152 158 163 158 157 166 171 173 180 186 186 190 197 187 164 164 175 183 199 212 212 202 201 212 207 195 196 198 188 181 186 189 196 210 211 208 217 220 213 210 204 190 185 192 185 180 180 175 178 167 146
256 238 228 233 250 266 257 237 263 255 229 222 228 237 250 242 208 156 141 143 138 132 138 146 147 151 152 148 147 138 139 150 137 120 118 121 130 142 148 151 158 155 152 153 153 153 152 151 153 155 156 163 170 172 175 176 180 186 192 181 144 136 152 155 165 186 196 190 190 202 203 191 196 200 189 178 172 169 177 200 208 200 206 213 205 188 179 171 165 172 173 173 176 176 176 167 154
294 293 285 278 272 278 277 261 262 258 224 217 222 247 265 234 168 189 168 148 139 138 144 150 149 149 143 142 142 138 140 119 110 117 126 132 138 147 153 157 160 159 157 161 159 151 147 143 144 149 147 146 163 170 158 143 143 171 191 176 126 107 124 143 147 158 175 181 182 193 196 189 200 201 185 175 170 164 164 179 187 182 189 199 193 176 170 166 164 171 177 169 154 161 165 153 146
274 286 327 301 299 284 271 264 264 259 217 206 213 278 285 247 190 189 173 159 148 145 151 152 150 144 136 142 144 138 110 100 112 142 141 142 149 154 162 167 165 162 159 156 150 143 142 143 142 148 144 123 131 145 136 117 105 119 138 139 123 99 97 120 132 141 159 173 180 191 193 193 197 188 170 166 163 163 170 181 178 167 176 185 176 171 167 162 170 175 175 169 149 150 152 143 142
247 260 178 270 294 271 247 237 244 239 214 187 172 257 270 256 211 173 158 171 164 153 157 152 145 138 134 145 143 131 116 120 148 163 145 150 160 162 165 170 169 156 147 145 142 137 139 144 140 141 146 129 121 128 123 114 104 103 101 98 99 95 94 108 126 140 152 162 170 179 181 184 187 176 168 169 161 161 177 190 185 166 175 179 172 173 168 159 172 174 169 171 161 157 153 147 150
250 287 249 216 245 258 237 218 228 229 209 175 158 211 257 268 222 159 152 179 171 157 155 141 135 133 131 140 138 130 130 145 160 151 147 157 165 171 174 173 165 147 141 144 141 139 142 147 143 134 138 133 131 137 129 125 122 109 93 82 82 89 95 100 113 137 151 150 155 166 165 165 169 158 160 170 168 168 177 184 177 168 178 180 179 183 177 169 176 173 168 170 164 163 160 152 155
216 246 272 232 211 252 243 208 212 217 200 162 158 224 256 267 216 160 153 176 163 142 144 140 137 137 136 139 142 137 135 148 151 146 150 160 168 176 178 165 152 143 143 147 142 143 146 145 143 139 140 138 137 140 137 138 136 119 99 88 86 87 88 89 96 118 135 136 139 148 142 137 138 137 139 152 162 163 169 178 169 166 181 184 190 195 186 183 186 179 174 176 167 163 165 160 165
232 197 240 240 214 245 243 204 201 203 184 148 160 226 264 267 211 162 145 159 154 119 134 143 141 138 141 144 151 141 131 140 142 137 141 153 157 154 154 149 144 145 149 150 147 146 145 144 147 148 147 145 142 136 125 121 116 105 100 99 104 115 116 93 88 100 114 127 134 133 132 127 120 120 123 131 146 151 159 168 158 158 175 182 195 199 189 189 192 188 181 182 182 169 168 167 172
270 231 234 247 232 227 211 195 196 189 161 148 178 219 252 268 189 146 145 152 153 136 135 146 146 143 147 149 151 137 132 144 139 130 129 131 130 130 141 149 147 151 155 156 156 152 147 146 150 150 147 143 137 130 123 120 119 116 111 109 115 125 132 110 90 91 97 107 121 130 135 129 116 114 124 134 140 145 154 160 151 156 171 179 192 197 189 189 191 195 186 176 180 174 167 163 166
278 263 238 264 258 219 181 184 195 179 163 160 189 226 251 257 184 147 155 143 132 144 141 145 144 142 147 145 147 139 136 147 145 141 139 134 133 139 156 160 153 155 158 162 161 155 152 150 151 151 149 143 133 130 134 135 131 131 123 115 115 115 122 115 97 92 90 91 96 107 121 124 119 114 127 148 155 149 157 162 158 164 174 176 185 192 190 190 189 194 189 173 167 169 168 166 172
309 304 264 280 281 240 196 174 180 170 161 168 182 220 239 226 202 167 162 151 139 136 129 134 138 142 152 149 152 148 140 147 146 141 142 145 150 156 163 159 157 158 160 167 163 156 156 154 154 152 150 145 138 139 147 145 138 139 129 118 117 113 115 115 106 101 98 96 92 91 97 106 113 111 116 128 133 152 165 164 160 164 173 176 180 187 189 191 190 190 189 178 168 165 167 170 182
327 328 312 313 313 279 223 151 173 156 137 187 190 213 237 230 217 194 171 158 155 136 120 133 145 149 156 149 146 143 138 144 141 138 144 153 162 170 170 161 162 161 161 168 165 159 160 157 156 154 153 150 146 149 153 150 148 153 145 129 124 120 119 118 114 115 109 103 100 98 98 98 105 112 116 116 114 133 154 162 167 164 167 177 183 186 185 184 185 183 180 177 175 173 171 169 181
349 339 322 322 317 302 8 118 173 126 103 210 258 303 275 274 250 211 172 157 168 152 128 140 152 149 147 145 145 145 145 149 142 146 156 159 164 175 177 170 170 166 164 168 165 160 161 160 160 157 157 155 153 155 156 155 155 158 153 140 134 128 124 120 112 115 119 111 104 101 100 102 107 109 105 111 117 127 141 148 162 167 168 178 182 183 183 180 182 184 179 175 172 172 180 188 189
357 345 333 312 303 321 2 48 88 79 88 290 344 348 298 301 302 257 165 147 164 162 139 141 150 150 153 153 151 149 149 155 151 159 170 162 164 176 180 176 175 170 165 166 165 162 161 162 164 162 159 158 160 164 164 163 161 158 150 141 136 127 122 121 110 110 117 116 113 108 104 102 108 113 105 105 105 105 129 142 140 146 161 177 184 187 188 182 182 186 186 188 186 187 211 226 207
323 301 315 291 288 334 341 330 66 73 97 141 32 347 307 313 326 311 201 149 151 168 144 134 146 158 169 165 158 157 154 162 170 176 187 173 166 176 183 179 175 172 166 165 165 163 163 166 168 166 161 160 166 169 163 156 146 140 138 134 132 124 120 121 116 114 116 114 115 116 112 104 102 109 113 112 101 88 98 132 140 136 143 161 181 192 191 186 186 186 185 193 197 195 204 216 205
290 246 237 266 286 320 331 305 36 40 17 89 68 9 319 319 331 305 282 124 140 162 136 139 160 153 161 161 156 163 162 167 179 182 188 184 171 176 182 179 174 172 170 168 168 167 167 170 172 170 165 166 172 164 152 145 136 131 129 127 125 122 123 124 119 117 115 110 109 109 110 109 101 98 107 118 107 89 90 105 121 124 136 153 171 182 176 171 175 175 174 184 192 195 198 188 174
302 247 221 236 269 292 314 1 46 39 352 328 89 54 297 304 309 281 286 348 143 164 152 170 173 124 141 158 162 171 174 172 178 180 184 186 179 175 178 180 175 173 173 172 171 171 172 174 173 172 170 171 171 163 156 151 142 137 135 131 127 126 129 130 127 125 122 116 112 109 105 103 100 97 101 108 101 93 92 99 108 107 106 117 128 147 160 159 155 158 164 172 183 195 197 177 171
285 256 243 248 265 283 292 30 76 96 271 255 132 135 262 301 301 272 270 284 236 184 168 166 148 117 138 159 168 173 176 175 178 183 185 184 180 174 177 181 177 174 176 175 173 174 175 174 172 173 174 173 168 164 165 160 151 147 147 142 136 137 138 135 134 131 127 123 117 113 107 100 99 101 102 100 97 95 95 104 110 106 102 103 105 112 127 134 127 133 147 132 127 167 191 184 178
243 232 297 307 288 289 282 263 160 170 202 288 162 146 186 287 279 266 259 283 273 217 171 141 139 139 147 157 168 174 177 183 186 184 183 181 179 177 180 183 179 176 176 177 176 175 174 173 172 176 177 176 174 172 173 169 161 157 156 151 147 148 146 139 138 135 129 127 122 115 111 106 103 105 104 99 98 93 87 95 106 106 106 104 100 103 111 115 109 110 120 114 101 115 155 162 158
234 207 176 274 279 294 290 270 253 192 144 293 275 162 174 267 271 278 281 287 270 219 169 132 121 110 136 151 164 177 181 182 182 176 176 177 178 181 183 184 182 176 176 178 178 177 177 175 175 178 179 178 180 180 178 175 166 161 161 158 154 151 146 141 140 135 129 128 125 122 119 116 111 108 108 105 104 97 85 89 97 99 103 107 104 105 108 110 109 108 111 108 101 105 116 119 115
221 214 227 321 328 328 327 304 284 37 135 226 252 182 175 268 276 285 293 288 260 205 163 146 118 84 78 104 138 165 175 176 176 171 173 174 180 185 185 185 183 178 177 180 179 177 178 178 177 178 179 181 184 183 180 175 168 167 169 163 153 147 144 142 141 137 134 132 130 129 126 122 119 114 113 111 109 106 95 89 90 90 92 96 100 106 110 108 104 104 108 109 105 106 112 114 109
173 151 306 357 352 316 317 310 301 31 273 240 235 200 190 272 273 242 248 252 208 174 160 154 121 94 85 84 103 124 125 148 158 136 96 147 190 194 189 186 184 179 178 177 178 181 183 184 183 179 179 184 186 183 179 175 173 176 176 167 155 150 148 145 145 145 144 141 138 136 133 130 127 122 120 117 112 112 108 99 93 93 91 88 88 95 100 102 103 104 109 117 116 112 114 116 114
105 90 54 28 345 303 316 335 1 70 263 262 291 265 215 240 258 241 268 278 172 149 145 136 114 98 94 89 90 94 92 102 111 104 80 57 207 202 193 190 181 175 178 178 179 185 187 187 185 180 181 186 185 181 178 176 179 182 176 166 159 156 155 152 151 153 150 146 143 141 140 138 134 130 127 124 120 118 116 113 109 106 103 99 96 98 101 104 108 111 113 117 120 122 125 126 122
79 77 66 60 347 317 318 324 5 176 249 277 349 332 281 226 241 248 264 355 67 78 116 123 112 102 99 98 95 90 90 92 95 110 121 92 91 163 178 187 179 175 182 184 183 185 185 185 184 182 183 186 184 180 177 176 182 186 175 166 164 162 162 158 156 157 154 152 150 148 149 146 143 141 137 132 128 124 122 123 124 120 116 114 111 112 116 117 116 116 115 110 109 116 122 126 123
133 129 114 126 173 301 285 291 336 277 275 291 327 327 300 276 268 261 239 168 99 75 98 108 104 105 102 98 91 82 81 83 85 92 93 79 59 88 158 190 193 186 185 186 184 184 184 182 181 181 181 184 182 176 176 177 184 191 180 170 168 167 166 163 160 161 159 157 156 156 156 155 152 152 148 142 133 130 130 128 131 133 130 126 120 118 122 121 117 114 111 105 102 108 111 112 114
213 187 148 150 170 169 197 208 150 233 281 305 330 337 257 259 270 274 254 162 106 91 96 93 90 96 90 83 79 75 73 68 64 57 45 28 9 2 348 246 208 195 187 187 186 185 184 183 182 180 175 178 175 170 175 181 187 195 187 175 172 172 171 165 163 167 165 161 162 163 163 162 160 160 156 149 139 139 143 137 135 137 136 135 131 128 129 126 120 115 113 110 103 101 102 103 106
270 200 137 184 195 151 156 179 166 166 235 305 306 221 225 217 237 271 285 96 97 99 100 97 90 78 77 81 80 75 71 60 53 46 30 13 6 358 349 330 205 192 184 181 182 180 178 178 178 173 171 172 170 170 180 185 188 197 192 180 176 176 173 168 167 171 169 166 166 167 169 168 165 163 160 151 146 151 155 149 144 139 138 141 139 136 134 132 134 130 125 119 110 104 100 101 103
294 359 160 239 199 130 120 227 183 128 138 273 242 241 277 260 251 271 222 103 109 113 110 110 106 87 81 88 90 84 81 68 59 51 27 9 10 8 14 76 114 153 160 156 156 156 148 125 122 143 158 163 165 176 184 184 188 195 194 182 178 177 176 173 171 173 172 170 170 169 171 172 168 166 162 155 154 161 165 162 158 152 148 144 142 147 147 143 148 144 135 124 119 124 115 102 102
42 312 273 316 4 91 101 94 351 62 181 259 232 218 253 251 266 271 176 146 147 137 125 118 109 101 100 105 105 101 100 87 70 50 18 12 20 19 35 85 101 109 120 128 138 148 146 133 134 149 155 159 181 200 189 182 185 185 186 186 181 178 179 177 175 175 173 172 171 170 171 173 173 170 165 160 161 169 174 174 173 168 165 155 149 159 165 162 166 156 146 146 145 151 145 122 121
156 247 276 24 48 354 22 121 171 185 202 284 271 242 237 216 240 261 216 182 173 156 136 129 123 121 121 119 116 111 107 95 81 58 26 30 35 34 43 64 91 110 118 125 137 150 154 160 175 184 182 181 201 212 190 180 181 172 175 190 187 181 180 180 179 177 176 174 173 171 172 174 174 172 168 165 166 172 178 180 182 179 175 168 164 173 181 176 183 182 170 176 182 179 171 158 170
272 266 300 66 155 183 219 174 165 169 199 276 287 284 294 248 219 235 235 210 168 150 140 139 140 136 131 127 124 118 114 112 110 97 57 50 51 51 54 57 70 87 101 125 146 157 158 164 179 186 188 193 200 197 181 177 178 171 174 187 188 185 183 183 182 180 179 179 176 172 172 175 176 174 172 170 170 173 177 182 189 191 189 182 177 183 191 187 190 197 192 193 199 196 195 196 202
20 32 291 292 272 92 56 328 223 147 166 234 260 296 290 265 249 237 210 177 138 147 141 132 130 129 128 128 125 122 121 118 116 109 76 69 67 64 64 63 66 71 77 107 140 156 160 167 178 183 189 194 190 181 176 174 174 173 175 181 181 180 180 181 183 181 177 178 179 177 174 175 176 177 176 174 173 176 179 183 191 198 202 197 191 192 198 199 199 201 199 205 212 205 203 212 220
298 199 186 180 139 82 54 339 309 22 125 178 150 205 262 259 298 344 71 62 12 137 125 116 123 127 124 123 122 125 126 120 118 118 99 77 75 74 73 69 67 69 70 83 115 140 156 170 178 180 183 187 182 173 170 171 172 172 176 182 175 168 166 165 175 180 173 167 172 174 175 177 176 176 178 177 176 178 184 187 193 202 207 207 206 205 206 206 206 206 206 211 215 209 209 219 223